QPF
0.14 0.14 0.15 0.17 0.18 0.18 0.17 0.17 0.15 0.12 0.09 0.06 0.03 0.01 0.00 0.00 0.00 0.00 0.00 0.00 0.00 0.01 0.01 0.01 0.00 0.01 0.00 0.00 0.01 0.01 0.01 0.01 0.01 0.01 0.00 0.00 0.00 0.00
0.15 0.18 0.19 0.18 0.19 0.19 0.18 0.18 0.17 0.14 0.12 0.09 0.05 0.01 0.00 0.00 0.00 0.00 0.00 0.00 0.00 0.00 0.01 0.01 0.01 0.01 0.00 0.00 0.00 0.00 0.00 0.00 0.00 0.00 0.00 0.00 0.00 0.00
0.14 0.16 0.18 0.19 0.20 0.19 0.18 0.18 0.18 0.16 0.13 0.10 0.06 0.03 0.01 0.00 0.00 0.00 0.00 0.00 0.00 0.00 0.01 0.00 0.01 0.01 0.00 0.00 0.00 0.00 0.00 0.00 0.00 0.00 0.00 0.00 0.00 0.00
0.10 0.11 0.11 0.12 0.13 0.15 0.14 0.14 0.14 0.13 0.12 0.10 0.07 0.04 0.02 0.01 0.00 0.00 0.00 0.00 0.00 0.00 0.01 0.01 0.01 0.01 0.01 0.01 0.00 0.00 0.00 0.00 0.00 0.01 0.01 0.01 0.00 0.00
0.12 0.11 0.10 0.09 0.09 0.10 0.11 0.12 0.11 0.10 0.10 0.09 0.07 0.04 0.02 0.01 0.01 0.00 0.00 0.01 0.01 0.00 0.01 0.01 0.01 0.01 0.01 0.01 0.01 0.01 0.00 0.01 0.01 0.01 0.01 0.01 0.01 0.01
0.10 0.11 0.10 0.11 0.10 0.10 0.10 0.10 0.09 0.09 0.08 0.07 0.05 0.03 0.02 0.01 0.01 0.02 0.03 0.04 0.03 0.02 0.02 0.03 0.03 0.02 0.02 0.03 0.02 0.02 0.01 0.01 0.02 0.02 0.02 0.03 0.03 0.03
0.09 0.09 0.10 0.10 0.09 0.10 0.10 0.10 0.09 0.08 0.06 0.05 0.04 0.03 0.02 0.01 0.01 0.02 0.03 0.03 0.03 0.04 0.06 0.05 0.05 0.04 0.04 0.03 0.02 0.02 0.03 0.03 0.03 0.03 0.03 0.04 0.04 0.04
0.09 0.10 0.10 0.11 0.11 0.09 0.06 0.05 0.08 0.08 0.07 0.06 0.05 0.04 0.02 0.02 0.02 0.02 0.03 0.05 0.04 0.04 0.05 0.05 0.04 0.04 0.03 0.02 0.02 0.02 0.02 0.02 0.02 0.03 0.04 0.04 0.03 0.03
0.08 0.11 0.10 0.10 0.16 0.17 0.09 0.05 0.04 0.04 0.05 0.05 0.05 0.04 0.03 0.02 0.02 0.03 0.06 0.08 0.05 0.04 0.04 0.03 0.03 0.02 0.01 0.01 0.01 0.01 0.01 0.01 0.02 0.03 0.02 0.02 0.02 0.02
0.04 0.08 0.11 0.12 0.15 0.18 0.14 0.12 0.06 0.03 0.03 0.02 0.03 0.02 0.02 0.02 0.03 0.03 0.04 0.03 0.02 0.03 0.03 0.02 0.02 0.01 0.01 0.01 0.01 0.01 0.00 0.00 0.00 0.00 0.01 0.01 0.01 0.01
0.02 0.04 0.08 0.11 0.12 0.17 0.18 0.17 0.10 0.04 0.03 0.05 0.05 0.04 0.04 0.03 0.02 0.02 0.03 0.03 0.02 0.02 0.01 0.01 0.02 0.01 0.01 0.01 0.00 0.00 0.00 0.00 0.00 0.00 0.00 0.00 0.00 0.00
0.01 0.02 0.06 0.10 0.12 0.15 0.19 0.20 0.15 0.06 0.02 0.02 0.02 0.02 0.02 0.02 0.04 0.05 0.06 0.06 0.02 0.01 0.01 0.01 0.01 0.01 0.01 0.01 0.01 0.00 0.00 0.00 0.00 0.00 0.00 0.00 0.00 0.00
0.01 0.02 0.03 0.07 0.09 0.12 0.16 0.16 0.13 0.07 0.03 0.01 0.01 0.00 0.01 0.01 0.01 0.02 0.04 0.06 0.04 0.01 0.00 0.01 0.01 0.02 0.02 0.01 0.01 0.00 0.00 0.00 0.00 0.00 0.00 0.00 0.00 0.00
0.01 0.02 0.02 0.05 0.08 0.09 0.11 0.10 0.07 0.09 0.05 0.03 0.02 0.02 0.01 0.01 0.00 0.00 0.00 0.01 0.01 0.00 0.00 0.01 0.01 0.01 0.01 0.01 0.01 0.00 0.00 0.00 0.00 0.00 0.00 0.00 0.00 0.00
0.01 0.01 0.03 0.04 0.05 0.07 0.09 0.09 0.08 0.10 0.09 0.06 0.03 0.01 0.01 0.01 0.00 0.00 0.00 0.00 0.00 0.00 0.00 0.00 0.00 0.00 0.01 0.01 0.00 0.00 0.00 0.00 0.00 0.00 0.00 0.00 0.00 0.00
0.01 0.01 0.02 0.03 0.04 0.05 0.06 0.07 0.07 0.09 0.11 0.06 0.02 0.01 0.01 0.01 0.00 0.00 0.00 0.00 0.00 0.00 0.00 0.00 0.00 0.00 0.00 0.00 0.00 0.00 0.00 0.00 0.00 0.00 0.00 0.00 0.00 0.00
0.01 0.01 0.02 0.02 0.02 0.02 0.03 0.04 0.04 0.04 0.06 0.04 0.02 0.01 0.01 0.01 0.01 0.00 0.00 0.00 0.00 0.00 0.00 0.00 0.00 0.00 0.00 0.00 0.00 0.00 0.00 0.00 0.00 0.00 0.00 0.00 0.00 0.00
0.01 0.01 0.01 0.01 0.01 0.01 0.02 0.02 0.02 0.02 0.03 0.03 0.02 0.02 0.02 0.02 0.01 0.00 0.00 0.00 0.00 0.00 0.00 0.00 0.00 0.00 0.00 0.00 0.00 0.00 0.00 0.00 0.00 0.00 0.00 0.00 0.00 0.00
0.00 0.00 0.00 0.00 0.00 0.00 0.01 0.01 0.01 0.00 0.01 0.02 0.01 0.01 0.01 0.01 0.00 0.00 0.00 0.00 0.00 0.00 0.00 0.00 0.00 0.00 0.00 0.00 0.00 0.00 0.00 0.00 0.00 0.00 0.00 0.00 0.00 0.00
0.00 0.00 0.00 0.00 0.00 0.00 0.00 0.00 0.00 0.00 0.00 0.00 0.00 0.00 0.00 0.00 0.00 0.00 0.00 0.00 0.00 0.00 0.00 0.00 0.00 0.00 0.00 0.00 0.00 0.00 0.00 0.00 0.00 0.00 0.00 0.00 0.00 0.00
0.00 0.00 0.00 0.00 0.00 0.00 0.00 0.00 0.00 0.00 0.00 0.00 0.00 0.00 0.00 0.00 0.00 0.00 0.00 0.00 0.00 0.00 0.00 0.00 0.00 0.00 0.00 0.00 0.00 0.00 0.00 0.00 0.00 0.00 0.00 0.00 0.00 0.00
0.00 0.00 0.00 0.00 0.00 0.00 0.00 0.00 0.00 0.00 0.00 0.00 0.00 0.00 0.00 0.00 0.00 0.00 0.00 0.00 0.00 0.00 0.00 0.00 0.00 0.00 0.00 0.00 0.00 0.00 0.00 0.00 0.00 0.00 0.00 0.00 0.00 0.00
0.00 0.00 0.00 0.00 0.00 0.00 0.00 0.00 0.00 0.00 0.00 0.00 0.00 0.00 0.00 0.00 0.00 0.00 0.00 0.00 0.00 0.00 0.00 0.00 0.00 0.00 0.00 0.00 0.00 0.00 0.00 0.00 0.00 0.00 0.00 0.00 0.00 0.00
MSLP
1013.74 1014.16 1014.62 1015.11 1015.59 1016.04 1016.43 1016.71 1016.89 1016.94 1016.89 1016.75 1016.57 1016.38 1016.23 1016.15 1016.16 1016.26 1016.46 1016.72 1017.02 1017.33 1017.64 1017.93 1018.19 1018.42 1018.63 1018.83 1019.02 1019.20 1019.36 1019.50 1019.60 1019.66 1019.69 1019.67 1019.64 1019.60
1013.54 1013.91 1014.34 1014.80 1015.29 1015.77 1016.20 1016.54 1016.79 1016.91 1016.91 1016.82 1016.66 1016.47 1016.29 1016.17 1016.12 1016.16 1016.30 1016.50 1016.77 1017.07 1017.38 1017.67 1017.95 1018.20 1018.43 1018.64 1018.83 1019.00 1019.15 1019.27 1019.37 1019.42 1019.44 1019.43 1019.40 1019.36
1013.43 1013.72 1014.08 1014.49 1014.95 1015.42 1015.86 1016.25 1016.53 1016.71 1016.77 1016.72 1016.60 1016.42 1016.25 1016.11 1016.03 1016.04 1016.14 1016.33 1016.58 1016.88 1017.19 1017.50 1017.79 1018.06 1018.30 1018.51 1018.69 1018.84 1018.98 1019.08 1019.15 1019.20 1019.21 1019.20 1019.17 1019.12
1013.39 1013.58 1013.85 1014.19 1014.60 1015.03 1015.46 1015.85 1016.16 1016.38 1016.48 1016.48 1016.39 1016.25 1016.10 1015.97 1015.90 1015.91 1016.02 1016.20 1016.47 1016.78 1017.11 1017.44 1017.75 1018.03 1018.28 1018.48 1018.65 1018.79 1018.90 1018.98 1019.04 1019.06 1019.07 1019.05 1019.01 1018.95
1013.40 1013.49 1013.66 1013.93 1014.26 1014.65 1015.04 1015.41 1015.73 1015.96 1016.09 1016.13 1016.08 1015.98 1015.87 1015.78 1015.75 1015.79 1015.92 1016.14 1016.44 1016.78 1017.15 1017.51 1017.85 1018.15 1018.40 1018.61 1018.77 1018.89 1018.98 1019.04 1019.07 1019.08 1019.07 1019.03 1018.98 1018.90
1013.43 1013.43 1013.53 1013.71 1013.97 1014.30 1014.65 1014.99 1015.29 1015.52 1015.67 1015.74 1015.73 1015.68 1015.61 1015.57 1015.59 1015.68 1015.87 1016.15 1016.50 1016.89 1017.31 1017.71 1018.08 1018.41 1018.67 1018.88 1019.03 1019.14 1019.22 1019.26 1019.28 1019.27 1019.24 1019.18 1019.10 1019.01
1013.49 1013.42 1013.45 1013.56 1013.76 1014.03 1014.34 1014.64 1014.92 1015.14 1015.29 1015.37 1015.39 1015.38 1015.36 1015.38 1015.46 1015.62 1015.87 1016.21 1016.62 1017.08 1017.55 1018.00 1018.41 1018.76 1019.05 1019.26 1019.42 1019.53 1019.59 1019.62 1019.63 1019.61 1019.56 1019.49 1019.39 1019.27
1013.58 1013.46 1013.44 1013.51 1013.66 1013.88 1014.14 1014.41 1014.66 1014.86 1015.00 1015.09 1015.13 1015.15 1015.18 1015.24 1015.38 1015.60 1015.92 1016.32 1016.79 1017.30 1017.82 1018.32 1018.77 1019.15 1019.46 1019.70 1019.86 1019.97 1020.04 1020.07 1020.07 1020.05 1019.99 1019.90 1019.79 1019.65
1013.70 1013.56 1013.52 1013.56 1013.68 1013.87 1014.09 1014.33 1014.54 1014.72 1014.85 1014.94 1014.98 1015.02 1015.08 1015.19 1015.37 1015.64 1016.00 1016.46 1016.97 1017.53 1018.09 1018.62 1019.10 1019.51 1019.84 1020.10 1020.28 1020.41 1020.49 1020.53 1020.54 1020.52 1020.46 1020.37 1020.25 1020.09
1013.87 1013.73 1013.68 1013.72 1013.82 1013.99 1014.19 1014.40 1014.59 1014.74 1014.86 1014.93 1014.98 1015.03 1015.10 1015.23 1015.44 1015.74 1016.13 1016.61 1017.15 1017.72 1018.30 1018.85 1019.35 1019.78 1020.13 1020.41 1020.62 1020.77 1020.87 1020.93 1020.95 1020.94 1020.90 1020.81 1020.69 1020.54
1014.09 1013.97 1013.93 1013.97 1014.08 1014.23 1014.42 1014.60 1014.77 1014.91 1015.01 1015.07 1015.12 1015.17 1015.25 1015.39 1015.60 1015.90 1016.30 1016.77 1017.30 1017.87 1018.45 1019.00 1019.50 1019.94 1020.30 1020.60 1020.83 1021.01 1021.14 1021.22 1021.27 1021.28 1021.26 1021.18 1021.07 1020.93
1014.38 1014.27 1014.25 1014.30 1014.41 1014.56 1014.73 1014.91 1015.06 1015.18 1015.27 1015.33 1015.38 1015.43 1015.51 1015.64 1015.85 1016.14 1016.51 1016.95 1017.46 1018.00 1018.54 1019.07 1019.56 1019.99 1020.37 1020.68 1020.93 1021.13 1021.29 1021.40 1021.48 1021.52 1021.52 1021.47 1021.38 1021.25
1014.72 1014.63 1014.62 1014.67 1014.78 1014.94 1015.10 1015.26 1015.41 1015.53 1015.62 1015.68 1015.74 1015.79 1015.87 1016.00 1016.18 1016.44 1016.78 1017.18 1017.63 1018.12 1018.62 1019.11 1019.57 1019.99 1020.36 1020.68 1020.95 1021.17 1021.35 1021.50 1021.60 1021.67 1021.70 1021.67 1021.61 1021.50
1015.11 1015.03 1015.02 1015.07 1015.18 1015.32 1015.48 1015.64 1015.78 1015.91 1016.01 1016.08 1016.15 1016.22 1016.30 1016.42 1016.60 1016.82 1017.11 1017.46 1017.86 1018.28 1018.72 1019.16 1019.58 1019.98 1020.34 1020.66 1020.94 1021.18 1021.38 1021.55 1021.68 1021.77 1021.82 1021.83 1021.79 1021.72
1015.54 1015.45 1015.43 1015.47 1015.56 1015.69 1015.83 1015.99 1016.14 1016.27 1016.39 1016.49 1016.59 1016.68 1016.78 1016.91 1017.07 1017.27 1017.52 1017.81 1018.14 1018.51 1018.89 1019.27 1019.65 1020.02 1020.36 1020.68 1020.96 1021.21 1021.43 1021.62 1021.76 1021.87 1021.94 1021.97 1021.96 1021.91
1016.00 1015.90 1015.85 1015.86 1015.92 1016.02 1016.15 1016.30 1016.45 1016.60 1016.75 1016.88 1017.02 1017.14 1017.27 1017.41 1017.57 1017.76 1017.98 1018.22 1018.50 1018.81 1019.13 1019.47 1019.81 1020.14 1020.47 1020.77 1021.05 1021.30 1021.53 1021.72 1021.87 1021.99 1022.07 1022.12 1022.13 1022.10
1016.48 1016.35 1016.27 1016.24 1016.27 1016.34 1016.44 1016.57 1016.72 1016.89 1017.06 1017.24 1017.41 1017.58 1017.74 1017.91 1018.08 1018.26 1018.46 1018.67 1018.91 1019.17 1019.45 1019.74 1020.05 1020.35 1020.66 1020.95 1021.22 1021.47 1021.69 1021.87 1022.02 1022.14 1022.22 1022.27 1022.29 1022.29
1016.96 1016.81 1016.69 1016.63 1016.61 1016.63 1016.71 1016.82 1016.97 1017.14 1017.34 1017.54 1017.75 1017.96 1018.16 1018.35 1018.54 1018.73 1018.92 1019.11 1019.33 1019.55 1019.80 1020.06 1020.34 1020.62 1020.91 1021.19 1021.45 1021.68 1021.89 1022.06 1022.19 1022.29 1022.36 1022.41 1022.43 1022.43
1017.45 1017.27 1017.12 1017.02 1016.96 1016.95 1016.99 1017.08 1017.21 1017.39 1017.59 1017.81 1018.05 1018.28 1018.51 1018.73 1018.93 1019.13 1019.32 1019.51 1019.71 1019.92 1020.14 1020.39 1020.64 1020.91 1021.18 1021.44 1021.68 1021.90 1022.08 1022.23 1022.34 1022.41 1022.46 1022.49 1022.50 1022.50
1017.91 1017.73 1017.56 1017.43 1017.34 1017.30 1017.31 1017.38 1017.49 1017.64 1017.84 1018.06 1018.31 1018.55 1018.79 1019.02 1019.24 1019.44 1019.64 1019.83 1020.02 1020.22 1020.43 1020.66 1020.91 1021.16 1021.41 1021.66 1021.88 1022.07 1022.23 1022.35 1022.43 1022.47 1022.49 1022.48 1022.47 1022.46
1018.33 1018.16 1018.01 1017.87 1017.77 1017.71 1017.69 1017.73 1017.81 1017.94 1018.12 1018.32 1018.55 1018.79 1019.02 1019.25 1019.46 1019.67 1019.86 1020.04 1020.23 1020.43 1020.63 1020.86 1021.09 1021.33 1021.57 1021.80 1022.00 1022.17 1022.30 1022.38 1022.43 1022.44 1022.42 1022.38 1022.33 1022.29
1018.68 1018.56 1018.43 1018.32 1018.22 1018.16 1018.13 1018.14 1018.19 1018.29 1018.43 1018.60 1018.80 1019.00 1019.22 1019.42 1019.62 1019.81 1020.00 1020.18 1020.36 1020.55 1020.75 1020.96 1021.18 1021.41 1021.63 1021.84 1022.02 1022.17 1022.27 1022.32 1022.33 1022.31 1022.25 1022.18 1022.09 1022.02
1018.94 1018.88 1018.81 1018.74 1018.68 1018.63 1018.60 1018.60 1018.63 1018.70 1018.79 1018.92 1019.07 1019.23 1019.40 1019.58 1019.75 1019.92 1020.08 1020.25 1020.42 1020.59 1020.78 1020.98 1021.18 1021.39 1021.60 1021.78 1021.94 1022.07 1022.14 1022.18 1022.16 1022.11 1022.02 1021.91 1021.79 1021.67
Thickness
5709 5708 5706 5705 5702 5701 5699 5696 5691 5689 5691 5697 5701 5705 5706 5707 5706 5707 5708 5706 5704 5701 5699 5697 5695 5693 5690 5689 5687 5686 5684 5682 5680 5679 5678 5677 5676 5674
5700 5699 5698 5697 5696 5695 5693 5691 5689 5688 5687 5691 5693 5696 5697 5699 5699 5701 5702 5699 5697 5696 5694 5691 5690 5688 5686 5684 5682 5681 5679 5678 5676 5675 5673 5672 5671 5669
5691 5691 5690 5690 5688 5687 5687 5685 5684 5683 5680 5683 5686 5689 5690 5692 5692 5694 5695 5694 5693 5690 5688 5686 5684 5683 5681 5679 5678 5676 5674 5673 5671 5670 5669 5667 5666 5665
5680 5681 5680 5681 5679 5679 5679 5678 5677 5677 5676 5675 5678 5680 5682 5684 5685 5686 5687 5687 5688 5683 5681 5680 5679 5677 5676 5674 5673 5671 5670 5668 5667 5665 5664 5663 5661 5660
5671 5671 5671 5670 5669 5669 5670 5670 5670 5670 5671 5670 5671 5673 5674 5675 5676 5677 5680 5681 5680 5677 5675 5674 5673 5671 5670 5669 5668 5666 5665 5663 5662 5660 5659 5658 5657 5655
5663 5663 5662 5662 5661 5661 5661 5661 5662 5662 5663 5664 5664 5666 5666 5668 5670 5670 5670 5671 5672 5671 5668 5667 5665 5664 5664 5663 5662 5660 5659 5658 5656 5655 5654 5652 5651 5649
5655 5656 5655 5654 5654 5654 5654 5654 5654 5655 5656 5657 5658 5660 5661 5662 5664 5666 5664 5663 5663 5664 5662 5661 5659 5658 5656 5655 5654 5653 5652 5651 5649 5648 5647 5645 5643 5641
5645 5647 5648 5648 5647 5647 5647 5647 5648 5650 5650 5652 5653 5654 5657 5658 5660 5661 5660 5658 5655 5655 5655 5651 5651 5649 5647 5646 5644 5644 5643 5642 5641 5640 5638 5636 5634 5631
5637 5639 5641 5642 5641 5642 5640 5640 5641 5643 5645 5650 5650 5652 5653 5655 5656 5656 5656 5656 5652 5649 5649 5643 5642 5640 5638 5635 5635 5635 5634 5633 5632 5631 5628 5626 5623 5620
5628 5631 5633 5634 5634 5635 5636 5636 5638 5638 5642 5647 5649 5649 5650 5651 5654 5654 5652 5649 5647 5645 5645 5637 5635 5633 5631 5628 5626 5626 5625 5624 5622 5621 5618 5616 5613 5610
5619 5621 5624 5627 5625 5627 5630 5631 5631 5631 5632 5636 5638 5639 5641 5643 5647 5649 5647 5645 5640 5638 5639 5635 5630 5627 5625 5622 5617 5617 5616 5615 5613 5611 5609 5607 5605 5603
5609 5613 5613 5617 5618 5621 5626 5626 5626 5627 5630 5631 5633 5635 5637 5638 5640 5645 5644 5642 5639 5634 5633 5632 5628 5627 5620 5617 5615 5613 5610 5607 5605 5604 5602 5600 5600 5601
5602 5605 5607 5608 5612 5616 5620 5623 5623 5626 5628 5629 5630 5631 5633 5634 5636 5638 5639 5639 5637 5633 5632 5632 5630 5629 5625 5615 5610 5607 5606 5605 5603 5600 5596 5594 5592 5591
5595 5599 5600 5602 5607 5611 5616 5617 5619 5623 5625 5626 5626 5625 5626 5626 5628 5629 5630 5631 5631 5630 5630 5631 5631 5629 5626 5618 5610 5605 5603 5602 5601 5599 5596 5591 5588 5584
5589 5590 5594 5598 5603 5608 5610 5613 5617 5621 5622 5621 5620 5619 5620 5621 5622 5622 5623 5623 5623 5623 5625 5627 5628 5628 5627 5621 5613 5607 5603 5599 5598 5597 5594 5591 5588 5584
5589 5589 5592 5596 5602 5604 5608 5612 5617 5619 5619 5618 5616 5616 5617 5618 5618 5619 5620 5620 5619 5617 5617 5619 5620 5621 5619 5616 5613 5607 5604 5599 5595 5594 5592 5589 5585 5582
5591 5593 5596 5599 5602 5605 5608 5611 5614 5616 5616 5616 5616 5616 5616 5616 5616 5617 5618 5620 5618 5615 5613 5612 5612 5611 5609 5610 5607 5604 5600 5596 5594 5592 5591 5589 5585 5580
5595 5595 5596 5599 5601 5604 5607 5609 5612 5613 5614 5615 5616 5616 5615 5615 5615 5616 5617 5617 5616 5614 5612 5611 5611 5610 5607 5601 5596 5600 5598 5595 5593 5590 5589 5589 5586 5580
5598 5597 5598 5599 5601 5603 5606 5608 5610 5612 5614 5615 5616 5616 5616 5616 5616 5616 5616 5616 5615 5614 5612 5611 5612 5612 5612 5608 5597 5592 5595 5593 5592 5590 5588 5586 5584 5579
5600 5599 5599 5600 5602 5605 5607 5610 5611 5613 5615 5615 5616 5616 5617 5617 5617 5617 5617 5616 5615 5613 5611 5610 5610 5611 5612 5609 5602 5594 5588 5590 5591 5590 5588 5585 5581 5575
5604 5603 5603 5605 5607 5609 5610 5612 5614 5615 5615 5616 5616 5616 5617 5618 5617 5617 5616 5609 5614 5615 5613 5609 5604 5601 5604 5603 5600 5595 5589 5583 5582 5583 5583 5584 5583 5581
5610 5609 5608 5609 5611 5612 5613 5614 5616 5616 5616 5617 5617 5617 5618 5618 5617 5616 5617 5616 5615 5614 5611 5607 5602 5602 5604 5604 5602 5596 5591 5585 5580 5577 5574 5573 5574 5577
5614 5613 5613 5612 5613 5614 5615 5616 5617 5618 5618 5618 5618 5618 5618 5617 5617 5616 5616 5615 5613 5612 5610 5607 5605 5603 5602 5600 5598 5595 5590 5586 5584 5581 5578 5572 5568 5565